This is the latest recevied weather packets stored in our database for station/object EB5AGF-13. If no packets are shown the sender has not sent any weather packets the latest 10 day(s).
| Time | Temp. | Humidity | Pressure | Rain* | Wind** | Luminosity | Snow |
|---|---|---|---|---|---|---|---|
| 1778054491 | 20.56° C | 72% | 1008.3 hPa | 0 mm | 1.79 m/s, 315° | 180 W/m² | - |
| 1778054191 | 20° C | 73% | 1008.1 hPa | 0 mm | 1.79 m/s, 43° | 332 W/m² | - |
| 1778053892 | 20° C | 72% | 1008.4 hPa | 0 mm | 1.79 m/s, 38° | 302 W/m² | - |
| 1778053591 | 20° C | 71% | 1008 hPa | 0 mm | 1.34 m/s, 70° | 297 W/m² | - |
| 1778053287 | 20° C | 69% | 1008 hPa | 0 mm | 1.79 m/s, 50° | 263 W/m² | - |
| 1778052983 | 20° C | 70% | 1008 hPa | 0 mm | 0.89 m/s, 69° | 233 W/m² | - |
| 1778052679 | 19.44° C | 70% | 1008.3 hPa | 0 mm | 1.79 m/s, 335° | 230 W/m² | - |
| 1778052375 | 20° C | 69% | 1008.2 hPa | 0 mm | 1.79 m/s, 53° | 167 W/m² | - |
| 1778052071 | 19.44° C | 67% | 1008.3 hPa | 0 mm | 0.89 m/s, 2° | 212 W/m² | - |
| 1778051767 | 18.89° C | 66% | 1008.2 hPa | 0 mm | 1.79 m/s, 355° | 189 W/m² | - |
| 1778051463 | 18.89° C | 65% | 1008.5 hPa | 0 mm | 2.24 m/s, 14° | 94 W/m² | - |
| 1778051159 | 18.89° C | 61% | 1008.4 hPa | 0 mm | 2.24 m/s, 353° | 116 W/m² | - |
| 1778050855 | 18.89° C | 59% | 1008.4 hPa | 0 mm | 1.79 m/s, 12° | 213 W/m² | - |
| 1778050552 | 18.33° C | 58% | 1008.2 hPa | 0 mm | 0.89 m/s, 4° | 184 W/m² | - |
| 1778050247 | 17.78° C | 61% | 1008.2 hPa | 0 mm | 0.89 m/s, 353° | 110 W/m² | - |
| 1778049932 | 17.22° C | 63% | 1008.4 hPa | 0 mm | 0.45 m/s, 359° | 88 W/m² | - |
| 1778049632 | 17.22° C | 64% | 1008.4 hPa | 0 mm | 0.89 m/s, 20° | 50 W/m² | - |
| 1778049331 | 17.22° C | 65% | 1008.4 hPa | 0 mm | 1.34 m/s, 14° | 102 W/m² | - |
| 1778049031 | 16.67° C | 68% | 1008.5 hPa | 0 mm | 0.45 m/s, 5° | 95 W/m² | - |
| 1778025607 | 17.78° C | 78% | 1007.9 hPa | 0 mm | 1.34 m/s, 312° | 0 W/m² | - |
| 1778025303 | 18.33° C | 77% | 1007.9 hPa | 0 mm | 1.34 m/s, 18° | 0 W/m² | - |
| 1778024999 | 18.33° C | 78% | 1008 hPa | 0 mm | 0.45 m/s, 21° | 0 W/m² | - |
| 1778024696 | 17.78° C | 80% | 1008 hPa | 0 mm | 0.89 m/s, 307° | 0 W/m² | - |
| 1778024391 | 18.33° C | 82% | 1007.6 hPa | 0 mm | 0 m/s | 0 W/m² | - |
| 1778024087 | 18.33° C | 82% | 1007.5 hPa | 0 mm | 0.45 m/s, 275° | 0 W/m² | - |
* Rain latest hour (hover to see other rain measurements)
** Current wind speed in m/s (hover to see current wind gust speed)